Regional Weather Roundup
Issued by NWS

Home | Current Version | Previous Version | Text Only | Print | Product List | Glossary On
Versions: 1 2 3 4 5 6 7 8 9 10 11 12 13 14 15 16 17 18 19 20 21 22 23 24 25 26 27 28 29 30 31 32 33 34 35 36 37 38 39 40 41 42 43 44 45 46 47 48 49 50
735
ASUS43 KMKX 281600
RWRWI

WISCONSIN REGIONAL WEATHER ROUNDUP
NATIONAL WEATHER SERVICE MILWAUKEE/SULLIVAN WI
1100 AM CDT THU APR 28 2016

NOTE: "FAIR" INDICATES FEW OR NO CLOUDS BELOW 12,000 FEET WITH NO
SIGNIFICANT WEATHER AND/OR OBSTRUCTIONS TO VISIBILITY.

WIZ001-002-006>008-014>016-023>028-281700-
NORTHWEST WISCONSIN

CITY           SKY/WX    TMP DP  RH WIND       PRES   REMARKS
SUPERIOR ARPT  MOSUNNY   42  34  73 NE17G28   30.09R
ASHLAND        CLOUDY    43  30  60 NE15      30.08R
HAYWARD        CLOUDY    49  19  30 NE9       30.02S
SIREN          CLOUDY    48  18  30 E9        30.02R
CUMBERLAND     CLOUDY    43  23  45 NE6       30.01R
RICE LAKE      PTSUNNY   46  21  38 E9        30.02S
CHETEK         CLOUDY    44  24  44 E5        30.00S
LADYSMITH      CLOUDY    47  19  32 E9        30.02R
EAU CLAIRE     NOT AVBL
MENOMONIE      LGT RAIN  37  37 100 NE13      29.99S WCI  29
NEW RICHMOND   LGT RAIN  36  33  86 E10       30.00S WCI  29
OSCEOLA        MIX PCPN  36  33  88 NE6       30.04R WCI  31
$$

WIZ003>005-009-010-017-018-281700-
NORTH CENTRAL WISCONSIN

CITY           SKY/WX    TMP DP  RH WIND       PRES   REMARKS
MANITOWISH WTR CLOUDY    44  22  41 E9        30.02R
ARBOR VITAE    CLOUDY    44  19  37 E7        30.02R
WOODRUFF       CLOUDY    44  19  37 E7        30.02R
RHINELANDER    CLOUDY    44  17  33 E14       30.02R
EAGLE RIVER    CLOUDY    45  18  33 E10       30.02R
LAND O LAKES   CLOUDY    46  17  32 E9        30.03S
PHILLIPS       CLOUDY    45  24  43 E5        30.01R
TOMAHAWK       CLOUDY    43  20  40 E3        30.01R
MEDFORD        CLOUDY    43  22  43 E10       29.98R
MERRILL        CLOUDY    45  20  37 E10       30.00R
$$

WIZ029-030-035-036-043>047-281700-
CENTRAL WISCONSIN

CITY           SKY/WX    TMP DP  RH WIND       PRES   REMARKS
WAUSAU         CLOUDY    47  22  37 E10       29.98R
MOSINEE        CLOUDY    43  23  45 E10G17    30.00R
MARSHFIELD     RAIN      38  33  82 E9        29.99R WCI  31
STEVENS POINT  LGT RAIN  37  30  77 E9G17     30.00R WCI  30
WAUPACA        DRIZZLE   42  34  73 E10       30.01R
WAUTOMA        NOT AVBL
WISC RAPIDS    LGT RAIN  38  35  89 E8        30.01R WCI  32
CAMP DOUGLAS   NOT AVBL
$$

WIZ011>013-019>022-031-037>040-048>050-281700-
NORTHEAST WISCONSIN

CITY           SKY/WX    TMP DP  RH WIND       PRES   REMARKS
ANTIGO         CLOUDY    42  21  44 E15       30.00R
SHAWANO        CLOUDY    46  26  46 E13       30.03R
OCONTO         CLOUDY    44  30  58 NE12G17   30.03S
STURGEON BAY   CLOUDY    45  25  45 E8        30.06R
GREEN BAY      LGT RAIN  43  31  62 SE10      30.03R
MANITOWOC      NOT AVBL
APPLETON       DRIZZLE   39  28  65 E13G18    30.00R WCI  32
CLINTONVILLE   CLOUDY    43  27  52 E14       30.02R
OSHKOSH        LGT RAIN  40  33  76 E13G21    29.99R WCI  32
$$

WIZ032>034-041-042-053>061-281700-
SOUTHWEST WISCONSIN

CITY           SKY/WX    TMP DP  RH WIND       PRES   REMARKS
LA CROSSE      CLOUDY    45  32  60 NE10      29.93R
SPARTA         CLOUDY    42  34  72 E14       29.94S
VIROQUA        CLOUDY    43  35  73 E17       29.89R
BOSCOBEL       CLOUDY    47  38  71 E8        29.89R
PRAIRIE DU CHI CLOUDY    44  38  78 E8        29.87R HAZE
PLATTEVILLE    CLOUDY    44  42  91 E15       29.87R
$$

WIZ056-057-062-063-064-067-068-281700-
SOUTH CENTRAL WISCONSIN

CITY           SKY/WX    TMP DP  RH WIND       PRES   REMARKS
REEDSBURG      DRIZZLE   39  37  92 NE9       29.92S WCI  33
BARABOO/DELLS  LGT RAIN  40  36  87 E12       29.93R WCI  32
LONE ROCK      NOT AVBL
MINERAL POINT  CLOUDY    45  41  87 E15       29.87S
MADISON        LGT RAIN  41  37  86 E14       29.92S
MIDDLETON      CLOUDY    42  40  91 E8        29.92S
WATERTOWN      CLOUDY    39  37  94 E14       29.93R FOG     WCI  31
MONROE         CLOUDY    41  37  87 E10G21    29.89R
JANESVILLE     CLOUDY    45  37  76 E14       29.90S
$$

WIZ051-052-058>065-066-070>072-281700-
SOUTHEAST WISCONSIN

CITY           SKY/WX    TMP DP  RH WIND       PRES   REMARKS
MILWAUKEE      CLOUDY    41  34  76 E20       29.95R
WAUKESHA       NOT AVBL
MILWAUKEE/TIMM CLOUDY    39  30  70 MISG      29.97R
RACINE         CLOUDY    41  34  76 E13       29.96R
BURLINGTON     CLOUDY    40  32  73 E14       29.92S WCI  32
KENOSHA        CLOUDY    42  34  73 E16       29.94R
FOND DU LAC    LGT RAIN  40  34  79 E8        29.98R WCI  34
SHEBOYGAN      CLOUDY    42  30  62 E15       30.00R
WEST BEND      CLOUDY    37  34  87 E10       29.97R FOG     WCI  30
JUNEAU         CLOUDY    39  34  81 E15       29.96R WCI  31
$$

LSZ147-162-281700-
LAKE SUPERIOR

STATION/POSITION TIME  TEMP    WIND        PRES    WAVE
                       AIR SEA DIR/SP/G            HT/PER
                 (UTC) (F)     (DEG/KT/KT) (MB)    (FT/S)
W MID LAKE BUOY  1450   38 36   60/ 17/ 21 1020.4F   3/ 4
DEVILS ISLAND    1500   38      60/ 22/ 24 1020.0S
SAXON HARBOR     1500   39      50/ 14/ 17 1017.6S
$$

LMZ867-665-643>646-281700-
LAKE MICHIGAN

STATION/POSITION TIME  TEMP    WIND        PRES    WAVE
                       AIR SEA DIR/SP/G            HT/PER
                 (UTC) (F)     (DEG/KT/KT) (MB)    (FT/S)
CHAMBERS ISLAND  1500   42      50/ 10/ 14 1017.9R
N MID LAKE BUOY  1450   39 38   80/ 17/ 21 1017.7R   3/ 4
NORTHPORT PIER   1500   40      70/ 13/ 18 1017.9R
ALGOMA LAKESHORE 1515           50/ 18/ 23   N/A
KEWAUNEE LAKESHO 1500   40      40/ 12/ 15 1015.6R
SHEBOYGAN LAKESH 1500   39      80/ 13/ 15 1016.1R
PORT WASHINGTON  1500   39      80/ 15/ 21 1015.9R
S MID LAKE BUOY  1450   39 39   90/ 19/ 25 1013.1R   5/ 5
KENOSHA   LAKESH 1500   40      70/ 17/ 21 1013.5R
$$

TC  - TEMPERATURE IN CELSIUS
VSB - VISIBILITY IN STATUTE MILES
WCI - WIND CHILL INDEX
HX  - HEAT INDEX





USA.gov is the U.S. government's official web portal to all federal, state and local government web resources and services.